STARLINK-5725, 55605

Orbit data source: Space-Track

STARLINK-5725, 55605 is a payload satellite owned by SpaceX/Seattle (US) in LEO that was launched on Sun, 12 Feb 2023 UTC via an FALCON 9 launch vehicle from the Air Force Eastern Test Range (AFETR). Payload-class satellites include a variety of spacecraft equipped with specific instruments for various scientific and technological missions. These include communications satellites like Starlink; space stations such as the ISS; scientific satellites like the Hubble; Earth observation satellites from companies like Planet Labs, Umbra, and HawkEye 360; GPS; miniature CubeSats for education and research; and military/defense satellites.

Loading next visibility...
Identifier
55605, 2023-020AN
Orbit
LEO
Country
Flag of USUS
Related business
Manufacturer
SpaceX/Seattle
Mission
Operational Commercial Communications
Bus & Motor
STARLINK, Unknown motor
Mass
305 kg wet, ~290 kg dry
Launch date (UTC)
2023-02-12 (3 years ago)
Launch vehicle
FALCON 9
Launch site
Air Force Eastern Test Range (AFETR)
Object type
Payload
Rocket body
Debris
Shape & HBR
Box + 1 Pan, 10.1 m
Radar Cross Section
13.562 m², Large (>1 m²)

Expand to show TLE details & history
Last TLE update: 17 hours ago

TLE from 17 hours ago
0 STARLINK-5725
1 55605U 23020AN  26048.46345359  .00000569  00000-0  57208-4 0  9993
2 55605  43.0030 101.8322 0001371 282.8673  77.2016 15.02531284166027
Epoch: 2026-02-17T11:07Z
TLE epoch observation values (Epoch: 2026-02-17T11:07:22.390Z)
Latitude
-0.00001°
Longitude
147.54581°
Altitude
558.662 km
Speed
7.584 km/s
True Right ascension
06h 47m 19s
True Declination
0° 00' 00"
Sunlit
Object was in full shadow at epoch
Visualization orbit readout
Latitude
Unknown
Longitude
Unknown
Altitude
Unknown
Speed
Unknown
Apparent Right ascension
Unknown
Apparent Declination
Unknown
Sunlit
N/A
Visualization observer readout
Local Sidereal Time
06:48:54
Azimuth
Unknown
Elevation
Unknown
Doppler factor
Unknown
Orbital elements
Apogee altitude
561.969 km
Perigee altitude
560.066 km
Semi-major axis
6,939.154 km
Eccentricity
0.00014
Inclination
43.003°
RAAN
101.8322°
Arg. of periapsis
282.8673°
True anomaly
77.21692°
Mean anomaly
77.2016°
Eccentric anomaly
77.20926°
Mean motion
3.75477 °/min
Orbital period
95.88 mins
BSTAR
0.000057208
Loading maneuver chart data...
Computing Atmospheric mass density...
Loading historical data...
Loading historical data...
Loading historical data...
Loading historical data...
Loading historical data...
Loading historical data...
Loading historical data...

Documentation

Showing up to 5 results
|